DateTimeUTC,F1_A11,F1_S11,BsB_S11,BsG_S11,BsR_S11,BbsB_S11,BbsG_S11,BbsR_S11,BaB_A11,BaG_A11,BaR_A11,Tu_S11,T_S11,Uu_S11,U_S11,P_S11,T1_A11
2021-03-10T16:00:00Z,00000200,21000000,,,,,,,0000.17,-000.03,-000.34,17.6,25.0,,00.0,0640.4,31.0
2021-03-10T16:01:00Z,00000200,21000000,,,,,,,-000.05,0000.27,-000.04,17.6,25.0,,00.0,0640.4,31.0
2021-03-10T16:02:00Z,00000200,21000000,,,,,,,0000.70,0000.05,0000.53,17.6,25.0,,00.0,0640.4,31.0
2021-03-10T16:03:00Z,00000200,61000000,,,,,,,0000.32,0000.84,0000.28,17.6,25.0,,00.0,0640.4,31.0
2021-03-10T16:04:00Z,00000200,41000000,0001.72,0000.84,0000.51,0000.31,0000.31,0000.10,0000.70,0000.45,0000.49,17.8,24.9,,00.0,0641.3,31.0
2021-03-10T16:05:00Z,00000200,01000000,0001.66,0001.12,0000.69,0000.47,0000.17,0000.15,0000.24,-000.12,0000.17,17.9,24.8,,00.0,0641.4,31.0
2021-03-10T16:06:00Z,00000200,01000000,0001.18,0001.03,0000.78,-000.13,0000.32,0000.06,0000.45,0000.71,0000.42,17.8,24.8,,00.0,0641.4,30.9
2021-03-10T16:07:00Z,00000200,01000000,0001.37,0000.80,0000.39,0000.51,0000.36,0000.09,0000.68,0000.86,0000.24,17.8,24.8,,00.0,0641.4,30.9
2021-03-10T16:08:00Z,00000200,01000000,0001.21,0001.02,0000.38,0000.41,0000.21,0000.10,0001.32,0000.99,0000.98,17.8,24.7,,00.0,0641.3,31.0
2021-03-10T16:09:00Z,00000200,01000000,0001.69,0000.82,0000.67,0000.53,0000.36,0000.08,0000.47,0000.52,0000.27,17.8,24.7,,00.0,0641.3,31.0
2021-03-10T16:10:00Z,00000200,01000000,0001.77,0000.90,0000.54,0000.56,0000.17,0000.29,0000.46,0000.26,0000.42,17.7,24.7,,00.0,0641.3,31.0
2021-03-10T16:11:00Z,00000200,01000000,0001.10,0000.63,0000.58,0000.51,0000.09,0000.08,0000.77,0001.18,0000.86,17.7,24.7,,00.0,0641.3,31.0
2021-03-10T16:12:00Z,00000200,01000000,0001.47,0001.02,0000.49,0000.31,-000.02,0000.05,0000.71,0000.42,-000.12,17.7,24.7,,00.0,0641.3,30.9
2021-03-10T16:13:00Z,00000200,01000000,0001.03,0001.21,0000.61,0000.34,0000.18,0000.30,0000.51,0000.47,0000.85,17.7,24.6,,00.0,0641.3,30.9
2021-03-10T16:14:00Z,00000200,01000000,0001.32,0000.77,0000.46,0000.60,0000.12,-000.03,0000.59,0000.47,0000.53,17.7,24.7,,00.0,0641.3,31.0
2021-03-10T16:15:00Z,00000200,01000000,0001.18,0000.95,0000.67,0000.40,0000.13,-000.10,0000.31,0000.63,0000.39,17.8,24.7,,00.0,0641.3,31.0
2021-03-10T16:16:00Z,00000200,01000000,0001.24,0000.80,0000.65,0000.44,0000.13,0000.16,0000.45,-000.36,-000.17,17.9,24.7,,00.0,0641.3,31.0
2021-03-10T16:17:00Z,00000200,01000000,0001.79,0000.90,0000.55,0000.26,0000.26,-000.08,0000.64,0000.91,0000.10,17.9,24.7,,00.0,0641.3,31.0
2021-03-10T16:18:00Z,00000200,01000000,0001.53,0000.56,0000.49,0000.60,0000.15,-000.00,0000.66,0000.76,0000.57,18.0,24.7,,00.0,0641.3,31.0
2021-03-10T16:19:00Z,00000200,01000000,0001.48,0001.17,0000.33,0000.38,0000.26,0000.11,0001.09,0000.90,0000.99,18.0,24.8,,00.0,0641.3,31.0
2021-03-10T16:20:00Z,00000200,01000000,0001.74,0000.81,0000.54,0000.68,0000.04,0000.11,0000.39,0000.26,0000.02,17.9,24.7,,00.0,0641.3,31.0
2021-03-10T16:21:00Z,00000200,01000000,0001.09,0000.78,0000.40,0000.33,0000.10,-000.12,0000.57,0000.42,0000.54,17.9,24.7,,00.0,0641.3,31.0
2021-03-10T16:22:00Z,00000200,01000000,0001.07,0000.87,0000.36,0000.13,0000.24,-000.06,0000.76,0000.88,0000.39,17.9,24.7,,00.0,0641.3,31.0
2021-03-10T16:23:00Z,00000200,01000000,0001.29,0000.87,0000.30,0000.16,0000.46,-000.09,0001.13,0000.53,0000.41,17.9,24.7,,00.0,0641.3,31.0
2021-03-10T16:24:00Z,00000200,01000000,0001.50,0000.86,0000.46,0000.63,0000.09,-000.07,0000.13,0000.49,0000.73,17.8,24.7,,00.0,0641.2,31.0
2021-03-10T16:25:00Z,00000200,01000000,0001.36,0000.86,0000.81,0000.55,0000.31,0000.20,0000.72,0000.87,0000.43,17.8,24.7,,00.0,0641.2,30.9
2021-03-10T16:26:00Z,00000200,01000000,0001.16,0000.97,0000.70,0000.54,0000.18,0000.04,0000.82,0000.39,0000.62,17.8,24.7,,00.0,0641.2,30.9
2021-03-10T16:27:00Z,00000200,01000000,0001.60,0000.95,0000.72,0000.48,0000.04,-000.03,0000.21,0000.32,-000.18,17.8,24.7,,00.0,0641.2,31.0
2021-03-10T16:28:00Z,00000200,01000000,0001.82,0000.79,0000.57,0000.33,-000.08,0000.10,0000.45,0000.32,0000.60,17.8,24.7,,00.0,0641.2,30.9
2021-03-10T16:29:00Z,00000200,01000000,0001.44,0000.92,0000.96,0000.52,0000.18,-000.05,0000.44,0000.32,0000.31,17.8,24.6,,00.0,0641.2,31.0
2021-03-10T16:30:00Z,00000200,01000000,0001.24,0000.95,0000.61,0000.36,0000.25,0000.34,0000.83,0000.76,0000.09,17.9,24.7,,00.0,0641.2,31.0
2021-03-10T16:31:00Z,00000200,01000000,0001.11,0000.70,0000.58,0000.22,0000.42,0000.15,0000.42,0000.40,0000.50,18.0,24.7,,00.0,0641.2,31.0
2021-03-10T16:32:00Z,00000200,01000000,0001.62,0001.18,0000.58,0000.79,0000.24,0000.11,0000.74,0000.59,0000.46,18.0,24.7,,00.0,0641.2,31.0
2021-03-10T16:33:00Z,00000200,01000000,0001.40,0000.94,0000.50,0000.25,0000.36,0000.00,0000.34,0000.45,0000.32,18.0,24.7,,00.0,0641.1,31.0
2021-03-10T16:34:00Z,00000200,01000000,0001.39,0000.71,0000.51,0000.23,0000.33,0000.14,0000.80,0000.37,0000.01,18.0,24.8,,00.0,0641.1,31.0
2021-03-10T16:35:00Z,00000200,01000000,0001.60,0001.20,0000.61,0000.17,0000.25,-000.04,0000.18,0000.33,0000.25,18.0,24.7,,00.0,0641.1,31.0
2021-03-10T16:36:00Z,00000200,01000000,0001.97,0001.04,0000.52,0000.27,0000.25,-000.07,0000.89,0001.05,0000.52,18.0,24.7,,00.0,0641.1,31.0
2021-03-10T16:37:00Z,00000200,01000000,0001.59,0000.84,0000.79,0000.14,0000.33,0000.03,0000.48,0000.66,0000.92,17.9,24.7,,00.0,0641.2,31.0
2021-03-10T16:38:00Z,00000200,01000000,0001.26,0001.19,0000.63,0000.70,0000.27,0000.10,0001.08,0000.29,0000.37,17.9,24.7,,00.0,0641.2,31.0
2021-03-10T16:39:00Z,00000200,01000000,0001.18,0000.76,0000.49,0000.36,0000.03,0000.24,0000.37,0000.93,0000.47,17.9,24.7,,00.0,0641.2,31.0
2021-03-10T16:40:00Z,00000200,01000000,0001.53,0001.17,0000.58,0000.22,0000.05,-000.01,0000.84,0000.24,0000.47,17.9,24.7,,00.0,0641.2,31.0
2021-03-10T16:41:00Z,00000200,01000000,0001.68,0001.08,0000.64,0000.18,0000.15,0000.02,0000.29,0000.60,0000.44,17.8,24.7,,00.0,0641.1,31.0
2021-03-10T16:42:00Z,00000200,01000000,0002.06,0000.85,0000.78,0000.80,0000.12,0000.23,0000.93,0000.80,0000.47,17.8,24.6,,00.0,0641.2,31.0
2021-03-10T16:43:00Z,00000200,01000000,0001.97,0001.13,0000.81,0000.57,0000.30,0000.14,0000.35,0000.24,0000.24,17.8,24.6,,00.0,0641.2,30.9
2021-03-10T16:44:00Z,00000200,01000000,0001.66,0001.20,0000.60,0000.29,0000.33,0000.17,0001.10,0001.12,0000.35,17.8,24.6,,00.0,0641.1,31.0
2021-03-10T16:45:00Z,00000200,01000000,0002.14,0000.94,0000.38,0000.47,0000.27,0000.08,0000.62,0000.29,0000.77,17.9,24.7,,00.0,0641.1,31.0
2021-03-10T16:46:00Z,00000200,01000000,0001.58,0001.28,0000.51,0000.46,0000.28,-000.12,0000.50,0001.04,0000.41,18.0,24.7,,00.0,0641.2,31.0
2021-03-10T16:47:00Z,00000200,01000000,0002.07,0001.16,0000.72,0000.35,0000.45,0000.03,0000.93,0000.76,0000.88,18.1,24.7,,00.0,0641.2,31.0
2021-03-10T16:48:00Z,00000200,01000000,0001.14,0001.40,0000.63,0000.64,0000.47,0000.13,0000.91,0000.14,0000.29,18.1,24.8,,00.0,0641.2,31.0
2021-03-10T16:49:00Z,00000200,01000000,0001.90,0000.99,0000.78,0000.69,0000.07,0000.31,0000.86,0001.29,0000.67,18.2,24.9,,00.0,0641.2,31.0
2021-03-10T16:50:00Z,00000200,01000000,0001.78,0000.96,0000.41,0000.34,0000.22,0000.07,0000.91,0000.72,0000.62,18.3,24.9,,00.0,0641.2,31.1
2021-03-10T16:51:00Z,00000200,01000000,0001.70,0000.91,0000.77,0000.23,0000.12,0000.16,0000.46,0000.69,0000.16,18.4,24.9,,00.0,0641.2,31.1
2021-03-10T16:52:00Z,00000200,01000000,0001.67,0001.11,0000.73,0000.43,0000.01,-000.01,0000.55,0000.46,0000.46,18.4,25.0,,00.0,0641.2,31.1
2021-03-10T16:53:00Z,00000200,01000000,0001.64,0001.16,0000.41,0000.48,0000.19,0000.15,0001.08,0000.59,0000.82,18.5,25.0,,00.0,0641.2,31.1
2021-03-10T16:54:00Z,00000200,01000000,0002.11,0001.21,0000.43,0000.60,0000.31,0000.15,0000.48,0000.67,0000.37,18.5,25.1,,00.0,0641.2,31.1
2021-03-10T16:55:00Z,00000200,01000000,0001.24,0001.24,0000.64,0000.74,0000.19,-000.08,0000.34,0000.34,-000.06,18.4,25.1,,00.0,0641.3,31.1
2021-03-10T16:56:00Z,00000200,01000000,0001.37,0001.06,0000.61,0000.56,0000.30,0000.27,0000.63,0000.49,0000.66,18.4,25.1,,00.0,0641.2,31.1
2021-03-10T16:57:00Z,00000200,41000000,,,,,,,0000.16,0000.28,-000.08,18.5,25.1,,00.0,0641.2,31.1
2021-03-10T16:58:00Z,00000200,61000000,,,,,,,0000.28,-000.09,0000.35,18.1,25.2,,00.0,0640.3,31.0
2021-03-10T16:59:00Z,00000200,21000000,,,,,,,0000.16,0000.33,0000.13,18.1,25.3,,00.0,0640.3,31.0
